[[{"header":{"parameterUnit":"m.s-1","parameterCategory":2,"la1":30.2991,"la2":30.254,"lo1":-89.0895,"lo2":-89.0444,"dy":0.0017,"dx":0.0017,"nx":28,"ny":28,"refTime":"2026-02-02T03:00:00:Z","depth":"0","parameterNumber":2,"parameterNumberName":"U-component_of_CURRENTS"},"data":[0,0,0,0,0,0,0,0,0,0,0,0,0,0,0,0,0,0,0,0,0,0,0,0,0,0,0,0,0,0,0,0,0,0,0,0,0,0,0,0,0,0,0,0,0,0,0,0,0,0,0,0,0,0,0,0,0,0,0.3639,0.3639,0,0.3604,0.3604,0.3604,0.3602,0.3602,0.3602,0.3603,0.3636,0.3636,0.3637,0,0,0,0,0,0,0,0,0,0,0,0,0,0.3641,0.3642,0.3639,0.3639,0.3638,0.3604,0.3604,0.3603,0.3601,0.3602,0.3603,0.3603,0.3635,0.3636,0.3637,0,0,0,0,0,0,0,0,0,0,0,0,0,0.3627,0.3642,0.3639,0.3634,0.3633,0.3605,0.3604,0.3603,0.3601,0.3602,0.3603,0.3603,0.3635,0.3636,0.3637,0.3628,0,0,0.3639,0.3639,0,0,0,0,0,0,0,0,0.3628,0.3627,0.3635,0.3634,0.3633,0.3608,0.3617,0.3615,0.3601,0.3613,0.3603,0.3604,0.3633,0.3634,0.3624,0.3629,0.3631,0.3639,0.3639,0.364,0.364,0,0,0,0,0,0,0,0.3629,0.3628,0.3625,0.3634,0.3633,0.3611,0.3611,0.3616,0.362,0.3612,0.3612,0.3608,0.3633,0.3623,0.3625,0.3631,0.3639,0.3639,0.364,0.364,0.3657,0.3657,0,0,0,0,0,0,0.3637,0.3629,0.3626,0.3624,0.3632,0.3611,0.361,0.3615,0.3619,0.362,0.3608,0.3608,0.3622,0.3624,0.3626,0.3614,0.364,0.364,0.3641,0.3657,0.3657,0.3657,0,0,0,0,0,0,0.3637,0.3637,0.3627,0.3625,0.3623,0.3611,0.3616,0.3614,0.361,0.3615,0.3617,0.3606,0.3622,0.3625,0.3634,0.3615,0.364,0.3641,0.3657,0.3657,0.3657,0.359,0,0,0,0,0,0,0.3637,0.3637,0.3643,0.3626,0.3623,0.3613,0.3616,0.3613,0.3607,0.3607,0.3615,0.3618,0.3623,0.3633,0.3635,0.3617,0.3642,0.3657,0.3657,0.3657,0.3593,0.3588,0.3584,0,0,0,0,0,0.3638,0.3632,0.3644,0.3643,0.3632,0.3613,0.3609,0.3602,0.3606,0.3601,0.3609,0.3618,0.3635,0.3633,0.3636,0.3617,0.3657,0.3657,0.3657,0.3594,0.3589,0.3585,0,0,0,0,0,0,0.3623,0.3631,0.3643,0.3639,0.3633,0.3613,0.36,0.3603,0.3602,0.3607,0.3615,0.3619,0.362,0.3635,0.3633,0.3626,0.3648,0.3649,0.36,0.3596,0.3592,0.3592,0.3642,0,0,0,0,0,0.3628,0.3628,0.3633,0.3624,0.3625,0.3617,0.3608,0.3609,0.3605,0.3604,0.3599,0.3609,0.3619,0.3621,0.363,0.3624,0.3662,0.3617,0.3613,0.3609,0.3613,0.3673,0.3675,0.3657,0.3657,0.3657,0,0,0.3614,0.3619,0.3617,0.3622,0.3614,0.3599,0.3613,0.36,0.3582,0.361,0.3576,0.3594,0.3617,0.3608,0.361,0.3618,0.363,0.3609,0.3605,0.3612,0.3673,0.3675,0.3677,0.3657,0.3657,0.3657,0,0,0.3588,0.3598,0.3599,0.3591,0.3592,0.3584,0.3584,0.3569,0.3561,0.3545,0.3561,0.3573,0.3568,0.3579,0.3588,0.3572,0.361,0.3573,0.3545,0.3602,0.3604,0.3606,0.3635,0.3641,0.3566,0.3566,0.3566,0,0.3584,0.358,0.3591,0.3583,0.3567,0.3577,0.3562,0.3548,0.3532,0.3524,0.3531,0.3537,0.3554,0.3558,0.3551,0.3561,0.3596,0.3555,0.3596,0.3599,0.3603,0.3633,0.364,0.3563,0.3563,0.3564,0.3564,0,0.3568,0.3553,0.3541,0.354,0.3524,0.3507,0.3498,0.3478,0.3471,0.3464,0.3462,0.3485,0.3496,0.3498,0.3518,0.3542,0.3559,0.3585,0.3605,0.36,0.3632,0.3641,0.3558,0.356,0.3561,0.3561,0,0,0.3597,0.3547,0.3545,0.3517,0.3502,0.3479,0.3449,0.343,0.3407,0.3404,0.3387,0.3406,0.343,0.3446,0.3473,0.3515,0.3561,0.3556,0.3561,0.3578,0.3674,0.3532,0.3528,0.36,0.3602,0.3603,0.3678,0,0.3591,0.3547,0.3534,0.3472,0.3441,0.3427,0.3388,0.3369,0.3359,0.3338,0.3377,0.3377,0.3407,0.3419,0.3466,0.3548,0.3584,0.3537,0.3683,0.3686,0.3556,0.3534,0.3309,0.3343,0.3686,0.3688,0.3689,0,0.3597,0.3558,0.3501,0.3418,0.3408,0.3376,0.3321,0.3294,0.3282,0.328,0.3299,0.3326,0.338,0.3414,0.3543,0.3515,0.3588,0.3648,0.3653,0.3552,0.356,0.341,0.3347,0.3194,0.3702,0.3701,0.37,0,0.3601,0.3532,0.3477,0.345,0.3371,0.3344,0.3313,0.328,0.3254,0.3256,0.325,0.3311,0.3349,0.3458,0.356,0.357,0.3701,0.3735,0.3669,0.366,0.3512,0.3485,0.331,0.3826,0.3826,0.3826,0.3826,0,0.3598,0.3557,0.3467,0.3432,0.3365,0.3323,0.3269,0.3246,0.3223,0.3193,0.323,0.3232,0.3369,0.3444,0.3553,0.3614,0.37,0.3654,0.3667,0.3477,0.3448,0.3344,0.3331,0.3829,0.3828,0.3827,0.3827,0,0.3626,0.3565,0.3491,0.3394,0.3361,0.332,0.3244,0.32,0.3188,0.3158,0.3162,0.3201,0.3286,0.3392,0.356,0.3578,0.3542,0.3675,0.3415,0.3394,0.3152,0.3146,0.2982,0.2933,0.3608,0.3605,0.3602,0,0.3643,0.3599,0.3472,0.3412,0.3372,0.3299,0.324,0.3196,0.3152,0.3132,0.3118,0.3171,0.319,0.333,0.3364,0.3464,0.343,0.3304,0.327,0.3077,0.3084,0.302,0.2991,0.3057,0.305,0.3045,0.304,0,0.3664,0.3612,0.3539,0.3409,0.3327,0.3241,0.3162,0.3124,0.307,0.3046,0.3019,0.3036,0.3085,0.3037,0.3105,0.3158,0.307,0.3188,0.307,0.2684,0.2527,0.2505,0.3067,0.299,0.2995,0.2999,0.3001,0.3003,0.3675,0.3624,0.3494,0.3377,0.3279,0.3166,0.3083,0.3019,0.2947,0.2854,0.2922,0.2849,0.2751,0.279,0.2805,0.2572,0.2745,0.2497,0.2525,0.2493,0.2352,0.277,0.2652,0.2655,0.2657,0.266,0.2662,0,0.3638,0.3556,0.3456,0.3282,0.3159,0.3122,0.2995,0.2892,0.2789,0.272,0.2681,0.2445,0.2323,0.2231,0.2004,0.1907,0.1892,0.1864,0.1726,0.1758,0.2175,0.2051,0.1693,0.1693,0.1694,0.1694,0.1694,0.1694,0.3596,0.3479,0.3409,0.3179,0.3067,0.2873,0.2789,0.2662,0.2561,0.2298,0.2097,0.2041,0.1843,0.1572,0.1346,0.1338,0.1291,0.1189,0.1328,0.1586,0.1647,0.1705,0.1578,0.1128,0.1127,0.0785,0.0782,0.078]},{"header":{"parameterUnit":"m.s-1","parameterCategory":2,"la1":30.2991,"la2":30.254,"lo1":-89.0895,"lo2":-89.0444,"dy":0.0017,"dx":0.0017,"nx":28,"ny":28,"refTime":"2026-02-02T03:00:00:Z","depth":"0","parameterNumber":3,"parameterNumberName":"V-component_of_CURRENTS"},"data":[0,0,0,0,0,0,0,0,0,0,0,0,0,0,0,0,0,0,0,0,0,0,0,0,0,0,0,0,0,0,0,0,0,0,0,0,0,0,0,0,0,0,0,0,0,0,0,0,0,0,0,0,0,0,0,0,0,0,0.0211,0.0211,0,0.0262,0.0263,0.0264,0.0293,0.0292,0.0292,0.0292,0.0399,0.0402,0.0405,0,0,0,0,0,0,0,0,0,0,0,0,0,0.0198,0.0198,0.0211,0.0211,0.0211,0.0262,0.0263,0.0264,0.0293,0.0292,0.0292,0.0291,0.0398,0.0402,0.0406,0,0,0,0,0,0,0,0,0,0,0,0,0,0.0227,0.0198,0.0211,0.0228,0.0229,0.0261,0.0263,0.0264,0.0293,0.0292,0.0292,0.0291,0.0397,0.0401,0.0406,0.0448,0,0,0.0421,0.0423,0,0,0,0,0,0,0,0,0.0225,0.0228,0.0225,0.0226,0.0228,0.0265,0.0297,0.0327,0.0293,0.0275,0.0291,0.0291,0.0356,0.0365,0.0383,0.0453,0.0458,0.0421,0.0424,0.0427,0.0428,0,0,0,0,0,0,0,0.0223,0.0226,0.0237,0.0225,0.0227,0.0252,0.0256,0.0304,0.0324,0.0276,0.0277,0.0274,0.0358,0.0378,0.0385,0.046,0.0421,0.0426,0.0429,0.0431,0.0639,0.0642,0,0,0,0,0,0,0.0203,0.0224,0.0235,0.0238,0.0219,0.0252,0.0257,0.0259,0.0322,0.0329,0.0274,0.0275,0.037,0.038,0.0389,0.0469,0.0426,0.0431,0.0434,0.0637,0.064,0.0643,0,0,0,0,0,0,0.0203,0.0204,0.0233,0.0227,0.0232,0.0252,0.0255,0.026,0.0283,0.0319,0.0328,0.0291,0.037,0.0382,0.047,0.0472,0.0433,0.0438,0.0634,0.0638,0.0641,0.0612,0,0,0,0,0,0,0.0203,0.0204,0.0208,0.0226,0.0231,0.027,0.0255,0.0261,0.0279,0.028,0.0337,0.0346,0.037,0.0463,0.0475,0.0478,0.0441,0.063,0.0635,0.064,0.061,0.0615,0.0619,0,0,0,0,0,0.0202,0.0201,0.0208,0.0209,0.0233,0.0271,0.0278,0.0293,0.028,0.0308,0.0358,0.0344,0.0502,0.047,0.0483,0.0487,0.0628,0.0634,0.064,0.0608,0.0614,0.0619,0,0,0,0,0,0,0.0186,0.0204,0.0212,0.0214,0.0249,0.0274,0.0286,0.0297,0.0355,0.0359,0.0388,0.0404,0.0475,0.0505,0.0469,0.0569,0.0558,0.0567,0.053,0.0536,0.054,0.053,0.0446,0,0,0,0,0,0.0186,0.0192,0.0224,0.0223,0.0242,0.0267,0.0282,0.0302,0.0344,0.0367,0.0399,0.0451,0.051,0.0542,0.0597,0.0659,0.0669,0.0673,0.0677,0.068,0.0687,0.0725,0.0732,0.0662,0.0662,0.0662,0,0,0.0166,0.0183,0.018,0.0221,0.0242,0.027,0.0277,0.0308,0.0334,0.0372,0.0418,0.0468,0.0535,0.0603,0.0635,0.0626,0.0704,0.0688,0.0689,0.0695,0.0732,0.0738,0.0744,0.0666,0.0665,0.0665,0,0,0.0141,0.0162,0.0167,0.0202,0.0247,0.0275,0.0285,0.0327,0.0355,0.042,0.045,0.0515,0.0591,0.064,0.0675,0.0746,0.0727,0.0755,0.0764,0.0801,0.0805,0.081,0.0805,0.0809,0.0755,0.0755,0.0755,0,0.0119,0.014,0.0176,0.02,0.0227,0.0274,0.0301,0.0339,0.0402,0.0441,0.0436,0.0566,0.0607,0.0699,0.072,0.0748,0.0756,0.0725,0.0801,0.0805,0.081,0.0805,0.0809,0.0754,0.0754,0.0754,0.0754,0,0.0114,0.0133,0.0141,0.0189,0.0227,0.0264,0.0321,0.0367,0.0398,0.0439,0.0534,0.0603,0.068,0.0697,0.0728,0.0794,0.0781,0.0795,0.077,0.0814,0.0807,0.0812,0.0753,0.0753,0.0753,0.0754,0,0,0.0057,0.0125,0.0129,0.0162,0.0236,0.027,0.0323,0.0406,0.0453,0.0509,0.0575,0.0665,0.0697,0.0742,0.0784,0.0816,0.084,0.0816,0.0818,0.078,0.089,0.0875,0.0879,0.086,0.0861,0.0862,0.0859,0,0.0051,0.0092,0.0136,0.0183,0.0216,0.0289,0.0339,0.0417,0.0486,0.0562,0.0637,0.0717,0.0716,0.0761,0.0791,0.0856,0.0859,0.0838,0.0881,0.0882,0.0838,0.0888,0.0878,0.0876,0.0865,0.0866,0.0866,0,0.0038,0.0077,0.0117,0.0207,0.0231,0.0266,0.0381,0.0439,0.0555,0.061,0.069,0.0751,0.0834,0.0814,0.0895,0.0882,0.0876,0.0896,0.0896,0.09,0.088,0.0841,0.0886,0.0836,0.0875,0.0874,0.0873,0,-0.0005,0.0068,0.0105,0.0132,0.0231,0.0272,0.0338,0.0449,0.0528,0.0643,0.0711,0.0801,0.0873,0.0892,0.0933,0.0917,0.1,0.0984,0.0948,0.0945,0.0957,0.0953,0.0937,0.1001,0.1001,0.1001,0.1001,0,-0.0022,0.0009,0.0087,0.0106,0.0181,0.0251,0.0348,0.0425,0.055,0.066,0.073,0.0834,0.0899,0.0961,0.0953,0.0981,0.101,0.0959,0.0958,0.0946,0.0941,0.0915,0.0901,0.1001,0.1001,0.1001,0.1001,0,-0.0074,-0.0032,0.002,0.0118,0.0155,0.0207,0.0356,0.0441,0.0541,0.0684,0.0726,0.0878,0.0969,0.1,0.1056,0.1024,0.1027,0.1018,0.098,0.0976,0.089,0.0875,0.0899,0.0937,0.0982,0.0982,0.0982,0,-0.0091,-0.0079,0.0016,0.0067,0.0115,0.0208,0.0295,0.042,0.0521,0.0723,0.0801,0.0929,0.1051,0.1116,0.1091,0.1065,0.1034,0.0999,0.0972,0.0893,0.0877,0.0872,0.0904,0.0961,0.0961,0.096,0.096,0,-0.0106,-0.0084,-0.003,0.0063,0.0146,0.0256,0.0381,0.0455,0.0622,0.074,0.0923,0.1032,0.1119,0.1144,0.1101,0.1071,0.0994,0.0992,0.0942,0.0891,0.0858,0.0891,0.092,0.0958,0.0958,0.0958,0.0958,0.0959,-0.0106,-0.0068,0.0004,0.0099,0.0192,0.032,0.0413,0.0549,0.0702,0.0908,0.0987,0.1157,0.1146,0.1124,0.1082,0.0948,0.0988,0.0885,0.0879,0.0883,0.0916,0.0919,0.0942,0.0942,0.0942,0.0942,0.0942,0,-0.0075,-0.0019,0.0059,0.0183,0.0293,0.034,0.0499,0.0603,0.0774,0.0948,0.1096,0.1159,0.1131,0.1068,0.0894,0.083,0.0847,0.0791,0.0779,0.0825,0.0845,0.0838,0.0803,0.0803,0.0803,0.0803,0.0803,0.0803,-0.0042,0.0035,0.0081,0.0261,0.0353,0.0502,0.0593,0.0723,0.0855,0.1027,0.1117,0.1189,0.1113,0.0856,0.0713,0.0702,0.0714,0.0688,0.0726,0.07,0.0708,0.0715,0.0704,0.0641,0.0641,0.0722,0.0722,0.0722]}],[{"header":{"parameterUnit":"m.s-1","parameterCategory":2,"la1":30.2991,"la2":30.254,"lo1":-89.0895,"lo2":-89.0444,"dy":0.0017,"dx":0.0017,"nx":28,"ny":28,"refTime":"2026-02-02T03:00:00:Z","depth":"2","parameterNumber":2,"parameterNumberName":"U-component_of_CURRENTS"},"data":[0,0,0,0,0,0,0,0,0,0,0,0,0,0,0,0,0,0,0,0,0,0,0,0,0,0,0,0,0,0,0,0,0,0,0,0,0,0,0,0,0,0,0,0,0,0,0,0,0,0,0,0,0,0,0,0,0,0,0.0357,0.0357,0,0.0354,0.0354,0.0354,0.0337,0.0336,0.0336,0.0336,0.0351,0.0352,0.0352,0,0,0,0,0,0,0,0,0,0,0,0,0,0.0353,0.0353,0.0357,0.0357,0.0357,0.0354,0.0354,0.0354,0.0337,0.0336,0.0336,0.0335,0.0351,0.0351,0.0352,0,0,0,0,0,0,0,0,0,0,0,0,0,0.0352,0.0353,0.0357,0.0349,0.0348,0.0354,0.0354,0.0354,0.0337,0.0336,0.0336,0.0335,0.035,0.0351,0.0352,0.037,0,0,0.0356,0.0356,0,0,0,0,0,0,0,0,0.0352,0.0352,0.035,0.0349,0.0349,0.0346,0.0358,0.0361,0.0337,0.034,0.0336,0.0335,0.0352,0.0353,0.0352,0.0371,0.0372,0.0356,0.0357,0.0357,0.0358,0,0,0,0,0,0,0,0.0352,0.0353,0.0356,0.035,0.0349,0.0347,0.0346,0.0359,0.0349,0.034,0.0339,0.034,0.0351,0.0351,0.0353,0.0372,0.0356,0.0357,0.0358,0.0358,0.0569,0.0573,0,0,0,0,0,0,0.0355,0.0353,0.0356,0.0356,0.035,0.0347,0.0347,0.0347,0.0349,0.0348,0.034,0.0339,0.0349,0.0351,0.0353,0.0455,0.0357,0.0358,0.0359,0.0564,0.057,0.0575,0,0,0,0,0,0,0.0354,0.0355,0.0356,0.0354,0.0355,0.0348,0.0349,0.0347,0.0351,0.0349,0.0348,0.0346,0.0349,0.0351,0.0405,0.0453,0.0359,0.036,0.0558,0.0566,0.0573,0.0608,0,0,0,0,0,0,0.0354,0.0355,0.0362,0.0355,0.0355,0.0371,0.0349,0.0347,0.0352,0.0351,0.0354,0.0354,0.0349,0.0404,0.0406,0.0452,0.0361,0.0552,0.0562,0.057,0.0601,0.0616,0.0629,0,0,0,0,0,0.0354,0.0372,0.0362,0.0363,0.0363,0.0372,0.0373,0.0365,0.0353,0.0365,0.0389,0.0354,0.0465,0.0407,0.0409,0.0457,0.0547,0.0559,0.057,0.0594,0.0613,0.0628,0,0,0,0,0,0,0.0383,0.0371,0.0361,0.0376,0.0377,0.037,0.038,0.0372,0.0396,0.0398,0.0393,0.0398,0.0473,0.0476,0.0412,0.0559,0.0511,0.0522,0.0529,0.0546,0.056,0.0565,0.0362,0,0,0,0,0,0.039,0.0392,0.0386,0.0398,0.0398,0.0389,0.0393,0.0388,0.0403,0.0411,0.0421,0.0462,0.0522,0.0538,0.0584,0.0638,0.0664,0.0687,0.0701,0.0712,0.0727,0.0839,0.0862,0.0612,0.0611,0.0611,0,0,0.0406,0.0398,0.0401,0.0403,0.0399,0.0403,0.039,0.0401,0.0418,0.0411,0.0454,0.0504,0.0554,0.0633,0.0668,0.0633,0.0798,0.0726,0.0734,0.0744,0.0853,0.0876,0.0897,0.0619,0.0618,0.0617,0,0,0.0424,0.0429,0.0428,0.0427,0.0425,0.0427,0.0431,0.0436,0.0455,0.0503,0.0532,0.0619,0.0667,0.0733,0.0768,0.0893,0.0875,0.0914,0.0967,0.1075,0.1094,0.1112,0.1154,0.1175,0.091,0.091,0.091,0,0.0442,0.0434,0.0434,0.0428,0.0432,0.0436,0.044,0.0465,0.0494,0.0536,0.0527,0.0694,0.0723,0.0854,0.0908,0.0919,0.0957,0.0878,0.1087,0.1105,0.1123,0.1162,0.1185,0.0913,0.0913,0.0913,0.0912,0,0.0444,0.0442,0.0446,0.0436,0.0449,0.0458,0.0482,0.052,0.0547,0.0584,0.072,0.0796,0.0897,0.0938,0.0952,0.1114,0.1091,0.109,0.1023,0.1149,0.1183,0.1206,0.0918,0.0917,0.0916,0.0915,0,0,0.0478,0.045,0.0452,0.044,0.0452,0.046,0.0514,0.0574,0.0627,0.0704,0.0802,0.0944,0.1002,0.1055,0.1109,0.1206,0.1354,0.1202,0.1206,0.1205,0.1556,0.1249,0.1244,0.1385,0.139,0.1394,0.1517,0,0.0478,0.0455,0.0456,0.0458,0.045,0.0482,0.0532,0.0596,0.067,0.0772,0.0902,0.1017,0.1041,0.1111,0.122,0.134,0.1423,0.1318,0.1468,0.1472,0.1153,0.1264,0.1243,0.1326,0.154,0.1544,0.1546,0,0.0484,0.0461,0.0452,0.0456,0.0461,0.048,0.0568,0.0613,0.0763,0.083,0.0978,0.1073,0.1265,0.1253,0.1505,0.1438,0.1506,0.1575,0.1581,0.1298,0.1209,0.1247,0.136,0.1585,0.1582,0.1579,0.1576,0,0.0494,0.0471,0.0462,0.0458,0.0468,0.05,0.0529,0.0644,0.0715,0.0885,0.0974,0.1179,0.1315,0.1458,0.1597,0.1575,0.1835,0.1812,0.1595,0.1573,0.1584,0.155,0.1978,0.1978,0.1978,0.1978,0.1977,0,0.0498,0.0496,0.0461,0.0454,0.0475,0.049,0.0563,0.0629,0.076,0.0882,0.1014,0.1163,0.1385,0.1548,0.1638,0.167,0.187,0.1618,0.1597,0.1587,0.1554,0.1805,0.1783,0.1982,0.1981,0.198,0.198,0,0.0526,0.0498,0.0483,0.0472,0.0478,0.0498,0.0562,0.0631,0.0741,0.091,0.0978,0.1209,0.1407,0.1556,0.1794,0.1694,0.1768,0.1724,0.1641,0.16,0.1421,0.1401,0.1491,0.1481,0.1473,0.1467,0.1461,0,0.0541,0.0527,0.0496,0.0499,0.0498,0.0521,0.0561,0.063,0.0715,0.0945,0.1046,0.1264,0.137,0.1508,0.1526,0.1553,0.1664,0.1394,0.1307,0.1407,0.138,0.1372,0.1363,0.1379,0.1373,0.1368,0.1364,0,0.0567,0.0555,0.0536,0.0537,0.0552,0.0576,0.0635,0.0691,0.0817,0.0941,0.114,0.1214,0.1316,0.1322,0.1237,0.124,0.1366,0.1272,0.1542,0.1407,0.1284,0.1259,0.1261,0.1321,0.1326,0.1329,0.1331,0.1333,0.0599,0.0592,0.0572,0.0602,0.0624,0.0683,0.0739,0.0788,0.0902,0.1088,0.115,0.121,0.1133,0.0999,0.0985,0.0985,0.1022,0.0952,0.0979,0.1008,0.0874,0.0733,0.0644,0.0644,0.0644,0.0645,0.0645,0,0.0657,0.0665,0.0655,0.0695,0.0775,0.0778,0.085,0.0876,0.1011,0.1056,0.1156,0.0975,0.0885,0.0895,0.0823,0.0639,0.0771,0.0603,0.0861,0.0899,0.0934,0.0809,0.0556,0.0555,0.0555,0.0555,0,0,0.0677,0.0699,0.0702,0.0853,0.0929,0.1027,0.1096,0.1068,0.1051,0.1016,0.1013,0.0964,0.0845,0.0731,0.0647,0.0644,0.0791,0.0607,0.0681,0.103,0.1067,0.112,0.0961,0,0,0,0,0]},{"header":{"parameterUnit":"m.s-1","parameterCategory":2,"la1":30.2991,"la2":30.254,"lo1":-89.0895,"lo2":-89.0444,"dy":0.0017,"dx":0.0017,"nx":28,"ny":28,"refTime":"2026-02-02T03:00:00:Z","depth":"2","parameterNumber":3,"parameterNumberName":"V-component_of_CURRENTS"},"data":[0,0,0,0,0,0,0,0,0,0,0,0,0,0,0,0,0,0,0,0,0,0,0,0,0,0,0,0,0,0,0,0,0,0,0,0,0,0,0,0,0,0,0,0,0,0,0,0,0,0,0,0,0,0,0,0,0,0,0.0159,0.0159,0,0.0129,0.0129,0.0129,0.0043,0.0041,0.0039,0.0037,-0.0067,-0.0068,-0.0069,0,0,0,0,0,0,0,0,0,0,0,0,0,0.0176,0.0176,0.0159,0.0159,0.0158,0.0129,0.0129,0.0129,0.0044,0.0041,0.0039,0.0036,-0.0067,-0.0068,-0.0069,0,0,0,0,0,0,0,0,0,0,0,0,0,0.0161,0.0176,0.0159,0.0111,0.0106,0.0129,0.0129,0.0128,0.0044,0.0041,0.0038,0.0035,-0.0066,-0.0067,-0.0069,-0.0018,0,0,-0.0073,-0.0074,0,0,0,0,0,0,0,0,0.0162,0.016,0.0119,0.0115,0.0109,0.0086,0.0096,0.0075,0.0045,0.0069,0.0037,0.0034,-0.0021,-0.0027,-0.0023,-0.0023,-0.0027,-0.0073,-0.0074,-0.0075,-0.0075,0,0,0,0,0,0,0,0.0163,0.0161,0.0149,0.0118,0.0113,0.0102,0.0097,0.0093,0.0041,0.0067,0.006,0.0056,-0.0025,-0.0021,-0.0026,-0.0029,-0.0073,-0.0074,-0.0075,-0.0076,-0.0002,0.0001,0,0,0,0,0,0,0.0165,0.0163,0.0149,0.0148,0.0127,0.0104,0.0098,0.0097,0.0042,0.0031,0.0058,0.0052,-0.0017,-0.0024,-0.003,0.0031,-0.0075,-0.0076,-0.0077,-0.0005,-0.0001,0.0002,0,0,0,0,0,0,0.0166,0.0165,0.0151,0.0153,0.015,0.0107,0.0107,0.0098,0.0077,0.0036,0.0023,0.0042,-0.002,-0.0028,-0.0022,0.0025,-0.0077,-0.0078,-0.0008,-0.0004,0.0,0.0149,0,0,0,0,0,0,0.0167,0.0166,0.0161,0.0153,0.015,0.0166,0.0109,0.01,0.008,0.007,0.0019,0.0008,-0.0023,-0.0019,-0.0024,0.0021,-0.0079,-0.0011,-0.0006,-0.0001,0.0141,0.0158,0.0173,0,0,0,0,0,0.0168,0.0177,0.0162,0.0159,0.0147,0.0167,0.0166,0.0125,0.0082,0.0091,0.0065,0.0008,0.001,-0.0018,-0.0023,0.0022,-0.0014,-0.0007,-0.0001,0.0134,0.0155,0.0172,0,0,0,0,0,0,0.0176,0.0169,0.0152,0.0155,0.0161,0.0152,0.0151,0.0126,0.0114,0.0094,0.0045,0.0036,0.0063,0.0025,-0.0005,0.0061,-0.0011,-0.0006,0.0093,0.0113,0.0128,0.0137,-0.008,0,0,0,0,0,0.018,0.0185,0.0183,0.0186,0.0189,0.0169,0.0166,0.0147,0.0137,0.0125,0.01,0.0079,0.0093,0.0084,0.0085,0.0118,0.0073,0.0144,0.016,0.0174,0.0179,0.0162,0.0177,0.0023,0.0022,0.0022,0,0,0.0182,0.018,0.0179,0.0188,0.0183,0.0219,0.016,0.0164,0.02,0.012,0.0151,0.0134,0.0116,0.0163,0.017,0.0129,0.0199,0.0182,0.0194,0.0191,0.017,0.0185,0.0198,0.0027,0.0026,0.0025,0,0,0.0208,0.0191,0.021,0.0228,0.0232,0.0239,0.024,0.024,0.0241,0.0278,0.0242,0.0258,0.0256,0.0273,0.0276,0.0381,0.0289,0.0369,0.0451,0.0436,0.0448,0.0457,0.0435,0.0441,0.0371,0.0371,0.0371,0,0.0206,0.0235,0.0221,0.0257,0.028,0.0253,0.03,0.0318,0.0323,0.0344,0.03,0.034,0.032,0.0395,0.0433,0.0418,0.0377,0.0379,0.0455,0.0464,0.0471,0.0445,0.0451,0.0379,0.0378,0.0377,0.0377,0,0.0259,0.0284,0.0301,0.0344,0.0375,0.0407,0.0438,0.0466,0.0458,0.0473,0.0528,0.0517,0.0526,0.0543,0.0519,0.0582,0.0526,0.0481,0.0403,0.0496,0.0463,0.0466,0.039,0.0388,0.0385,0.0383,0,0,0.025,0.0323,0.0326,0.0369,0.0423,0.0456,0.0535,0.0602,0.0642,0.0658,0.0712,0.0759,0.0718,0.0721,0.0695,0.0696,0.0727,0.0611,0.0607,0.0584,0.0677,0.0665,0.0665,0.0678,0.068,0.068,0.0637,0,0.0292,0.0374,0.041,0.0505,0.0555,0.0588,0.0668,0.0725,0.0753,0.0801,0.0809,0.0834,0.0797,0.0783,0.0794,0.074,0.0738,0.0742,0.0594,0.059,0.0564,0.0671,0.0575,0.053,0.0639,0.0639,0.0639,0,0.0331,0.0386,0.0469,0.0592,0.0616,0.066,0.0766,0.0835,0.0907,0.092,0.0948,0.0934,0.0966,0.0892,0.0865,0.0857,0.0781,0.0736,0.0731,0.0667,0.0584,0.0453,0.053,0.0643,0.0642,0.0642,0.0642,0,0.0319,0.0436,0.0499,0.0536,0.0658,0.0693,0.0752,0.0841,0.0896,0.0955,0.0976,0.1015,0.1002,0.0946,0.0873,0.0847,0.082,0.0763,0.069,0.0687,0.0552,0.0536,0.0732,0.0732,0.0732,0.0732,0.0732,0,0.0353,0.0407,0.0479,0.0509,0.0588,0.0675,0.0747,0.0813,0.0891,0.0962,0.0996,0.1052,0.1006,0.0996,0.0908,0.0828,0.084,0.073,0.0689,0.0605,0.0595,0.0639,0.0629,0.0731,0.0731,0.0731,0.0731,0,0.0326,0.0374,0.0443,0.0543,0.0566,0.0603,0.0702,0.0769,0.0838,0.0922,0.0933,0.1051,0.1048,0.1004,0.0928,0.0865,0.0785,0.0739,0.0652,0.0604,0.0647,0.0645,0.0658,0.0658,0.0657,0.0657,0.0657,0,0.0327,0.035,0.0418,0.0432,0.0455,0.0517,0.0574,0.0691,0.0767,0.0935,0.0985,0.1036,0.1064,0.099,0.0887,0.0748,0.0769,0.0603,0.0557,0.0689,0.0646,0.0645,0.0644,0.0429,0.0427,0.0425,0.0424,0,0.0323,0.031,0.0352,0.0362,0.0393,0.0489,0.0573,0.0639,0.0805,0.0899,0.1059,0.1087,0.1018,0.0888,0.0725,0.0637,0.0626,0.0565,0.0718,0.048,0.0474,0.0432,0.0438,0.0408,0.041,0.0411,0.0412,0.0413,0.0283,0.0288,0.0294,0.0312,0.0359,0.0467,0.0549,0.0686,0.0833,0.1006,0.1068,0.1082,0.0899,0.066,0.0548,0.0481,0.0503,0.0434,0.0438,0.0445,0.0444,0.0439,0.0366,0.0367,0.0368,0.0369,0.037,0,0.025,0.0244,0.0261,0.031,0.0381,0.0405,0.0567,0.0684,0.0872,0.097,0.1068,0.0866,0.0683,0.0542,0.0374,0.0272,0.0259,0.0275,0.0243,0.0256,0.0269,0.026,0.0133,0.0132,0.0132,0.0132,0,0,0.0231,0.022,0.0238,0.0317,0.0364,0.048,0.0578,0.0738,0.0829,0.0948,0.0933,0.0865,0.0631,0.0457,0.0301,0.0228,0.0285,0.0223,0.0407,0.0394,0.0409,0.0336,0.0334,0,0,0,0,0]}],[{"header":{"parameterUnit":"m.s-1","parameterCategory":2,"la1":30.2991,"la2":30.254,"lo1":-89.0895,"lo2":-89.0444,"dy":0.0017,"dx":0.0017,"nx":28,"ny":28,"refTime":"2026-02-02T03:00:00:Z","depth":"4","parameterNumber":2,"parameterNumberName":"U-component_of_CURRENTS"},"data":[0,0,0,0,0,0,0,0,0,0,0,0,0,0,0,0,0,0,0,0,0,0,0,0,0,0,0,0,0,0,0,0,0,0,0,0,0,0,0,0,0,0,0,0,0,0,0,0,0,0,0,0,0,0,0,0,0,0,-0.0543,-0.0543,0,-0.0525,-0.0525,-0.0525,-0.0518,-0.0518,-0.0519,-0.0519,-0.051,-0.0509,-0.0509,0,0,0,0,0,0,0,0,0,0,0,0,0,-0.0555,-0.0554,-0.0543,-0.0543,-0.0543,-0.0525,-0.0525,-0.0525,-0.0518,-0.0518,-0.0519,-0.0519,-0.051,-0.0509,-0.0509,0,0,0,0,0,0,0,0,0,0,0,0,0,-0.0543,-0.0554,-0.0543,-0.0538,-0.0538,-0.0525,-0.0525,-0.0524,-0.0518,-0.0518,-0.0519,-0.0519,-0.051,-0.0509,-0.0509,-0.0499,0,0,-0.0507,-0.0507,0,0,0,0,0,0,0,0,-0.0544,-0.0543,-0.0539,-0.0539,-0.0538,-0.0525,-0.0526,-0.0517,-0.0518,-0.0524,-0.0519,-0.0519,-0.0516,-0.0515,-0.0509,-0.0499,-0.0498,-0.0507,-0.0506,-0.0506,-0.0506,0,0,0,0,0,0,0,-0.0545,-0.0543,-0.0534,-0.0539,-0.0539,-0.0532,-0.0531,-0.0524,-0.0518,-0.0524,-0.0523,-0.0524,-0.0516,-0.051,-0.0509,-0.0498,-0.0507,-0.0506,-0.0506,-0.0506,-0.0436,-0.0434,0,0,0,0,0,0,-0.055,-0.0544,-0.0535,-0.0534,-0.0543,-0.0532,-0.053,-0.0528,-0.0518,-0.0517,-0.0523,-0.0523,-0.0511,-0.051,-0.0509,-0.0454,-0.0506,-0.0506,-0.0505,-0.0437,-0.0436,-0.0434,0,0,0,0,0,0,-0.055,-0.0549,-0.0536,-0.054,-0.0538,-0.0531,-0.0529,-0.0528,-0.0528,-0.0518,-0.0517,-0.0526,-0.0511,-0.051,-0.0506,-0.0455,-0.0505,-0.0505,-0.0439,-0.0437,-0.0435,-0.0372,0,0,0,0,0,0,-0.0551,-0.055,-0.0553,-0.054,-0.0538,-0.053,-0.0529,-0.0527,-0.0528,-0.0528,-0.052,-0.0519,-0.0511,-0.0507,-0.0506,-0.0455,-0.0504,-0.0441,-0.0438,-0.0435,-0.0376,-0.0368,-0.0361,0,0,0,0,0,-0.0551,-0.0551,-0.0553,-0.0553,-0.0542,-0.053,-0.0528,-0.0523,-0.0528,-0.0525,-0.0522,-0.052,-0.0487,-0.0507,-0.0505,-0.0453,-0.0442,-0.0439,-0.0436,-0.0379,-0.0369,-0.0361,0,0,0,0,0,0,-0.0558,-0.055,-0.0552,-0.0551,-0.0544,-0.053,-0.0529,-0.0528,-0.0522,-0.0526,-0.0519,-0.0517,-0.0487,-0.0488,-0.051,-0.0424,-0.0457,-0.0453,-0.0414,-0.0405,-0.0398,-0.0414,-0.0504,0,0,0,0,0,-0.0562,-0.0563,-0.0552,-0.0554,-0.0549,-0.0542,-0.0539,-0.0535,-0.0528,-0.0527,-0.0512,-0.0496,-0.0469,-0.0457,-0.0441,-0.0409,-0.0479,-0.0369,-0.0361,-0.0355,-0.0367,-0.0484,-0.049,-0.0423,-0.0423,-0.0423,0,0,-0.0568,-0.0564,-0.0566,-0.0556,-0.055,-0.053,-0.054,-0.0536,-0.0505,-0.0527,-0.0484,-0.0478,-0.0459,-0.0412,-0.0397,-0.0409,-0.04,-0.0351,-0.0345,-0.0361,-0.0481,-0.0488,-0.0495,-0.0421,-0.0421,-0.0422,0,0,-0.057,-0.0574,-0.0569,-0.056,-0.0553,-0.0535,-0.0535,-0.0515,-0.0494,-0.0449,-0.0458,-0.0452,-0.0377,-0.0383,-0.0365,-0.0318,-0.0364,-0.0272,-0.024,-0.0353,-0.0361,-0.0369,-0.0431,-0.0445,-0.0261,-0.0261,-0.0261,0,-0.0576,-0.056,-0.0566,-0.0554,-0.0527,-0.0534,-0.05,-0.0484,-0.0462,-0.0447,-0.042,-0.0386,-0.0366,-0.0361,-0.0305,-0.0304,-0.0355,-0.0274,-0.0348,-0.0358,-0.0367,-0.0429,-0.0446,-0.0258,-0.0258,-0.0258,-0.0259,0,-0.0566,-0.0551,-0.0546,-0.052,-0.0495,-0.0474,-0.0441,-0.0415,-0.037,-0.0361,-0.0338,-0.0336,-0.0315,-0.0288,-0.0253,-0.029,-0.0299,-0.0336,-0.0381,-0.0371,-0.0435,-0.0454,-0.0253,-0.0254,-0.0255,-0.0256,0,0,-0.0567,-0.0539,-0.0536,-0.0495,-0.0466,-0.043,-0.0383,-0.0336,-0.033,-0.0296,-0.0301,-0.0228,-0.0256,-0.0242,-0.0247,-0.0318,-0.0383,-0.0318,-0.0325,-0.0394,-0.0594,-0.0428,-0.0433,-0.0434,-0.0438,-0.044,-0.06,0,-0.0544,-0.0499,-0.0483,-0.0409,-0.0366,-0.0337,-0.0289,-0.0261,-0.0244,-0.0264,-0.029,-0.0287,-0.0231,-0.0222,-0.0283,-0.038,-0.0433,-0.0334,-0.058,-0.0586,-0.0455,-0.045,-0.0452,-0.0614,-0.0619,-0.0622,-0.0624,0,-0.0521,-0.0484,-0.0404,-0.0321,-0.0298,-0.0233,-0.016,-0.0134,-0.0186,-0.0184,-0.023,-0.0278,-0.034,-0.0318,-0.0483,-0.0415,-0.0468,-0.0553,-0.0563,-0.0451,-0.0456,-0.0634,-0.0659,-0.0656,-0.0654,-0.0651,-0.0649,0,-0.0488,-0.0416,-0.0329,-0.0303,-0.0224,-0.0139,-0.0084,-0.009,-0.0108,-0.0161,-0.0228,-0.0309,-0.0382,-0.0481,-0.0571,-0.0527,-0.0809,-0.0792,-0.0708,-0.0697,-0.0834,-0.0824,-0.0926,-0.0926,-0.0925,-0.0925,-0.0925,0,-0.0447,-0.0389,-0.0283,-0.0241,-0.0117,-0.0069,-0.0005,0.002,-0.0057,-0.0133,-0.0187,-0.0285,-0.0429,-0.0591,-0.0639,-0.0719,-0.0857,-0.0702,-0.0733,-0.0793,-0.0777,-0.0845,-0.0834,-0.0931,-0.093,-0.0928,-0.0927,0,-0.0428,-0.0378,-0.0275,-0.015,-0.0098,0.0006,0.0054,0.0026,-0.001,-0.0136,-0.0158,-0.0317,-0.0425,-0.0591,-0.0792,-0.0799,-0.0908,-0.0907,-0.0952,-0.0984,-0.0696,-0.0679,-0.0801,-0.0797,-0.0793,-0.079,-0.0787,0,-0.0412,-0.0356,-0.0218,-0.0156,-0.0072,0.0046,0.0063,0.0072,-0.0002,-0.0143,-0.0241,-0.0361,-0.0442,-0.0619,-0.074,-0.0846,-0.083,-0.0913,-0.0769,-0.0667,-0.0687,-0.0676,-0.0664,-0.0781,-0.078,-0.0779,-0.0778,0,-0.0377,-0.0328,-0.0255,-0.0156,-0.0064,-0.0021,0.0017,-0.0024,-0.0083,-0.0158,-0.0239,-0.029,-0.043,-0.0511,-0.0616,-0.0692,-0.0875,-0.0873,-0.0879,-0.0743,-0.0645,-0.0666,-0.0659,-0.0765,-0.0767,-0.0768,-0.0769,0,-0.0354,-0.0305,-0.0242,-0.0133,-0.009,-0.009,-0.0042,-0.007,-0.0103,-0.0223,-0.0238,-0.0331,-0.0402,-0.0434,-0.0544,-0.058,-0.0526,-0.0541,-0.0563,-0.0579,-0.0429,-0.0267,-0.0299,0,0,0,0,0,-0.0323,-0.0305,-0.0244,-0.0142,-0.0138,-0.011,-0.0123,-0.0114,-0.0163,-0.0184,-0.0184,-0.0248,-0.0287,-0.0345,-0.0329,-0.0474,-0.0582,-0.0462,-0.0623,-0.0693,-0.0708,-0.0549,0,0,0,0,0,0,-0.0304,-0.0273,-0.0255,-0.022,-0.0178,-0.0177,-0.0178,-0.0189,-0.0178,-0.0203,-0.0206,-0.0218,-0.026,-0.0269,-0.0316,-0.0337,-0.043,-0.0494,-0.0493,-0.0685,-0.0699,-0.0711,-0.0552,0,0,0,0,0]},{"header":{"parameterUnit":"m.s-1","parameterCategory":2,"la1":30.2991,"la2":30.254,"lo1":-89.0895,"lo2":-89.0444,"dy":0.0017,"dx":0.0017,"nx":28,"ny":28,"refTime":"2026-02-02T03:00:00:Z","depth":"4","parameterNumber":3,"parameterNumberName":"V-component_of_CURRENTS"},"data":[0,0,0,0,0,0,0,0,0,0,0,0,0,0,0,0,0,0,0,0,0,0,0,0,0,0,0,0,0,0,0,0,0,0,0,0,0,0,0,0,0,0,0,0,0,0,0,0,0,0,0,0,0,0,0,0,0,0,0.0361,0.036,0,0.034,0.034,0.034,0.0366,0.0367,0.0367,0.0368,0.0407,0.0407,0.0407,0,0,0,0,0,0,0,0,0,0,0,0,0,0.0362,0.0363,0.0361,0.036,0.036,0.034,0.034,0.034,0.0365,0.0367,0.0368,0.0369,0.0406,0.0407,0.0407,0,0,0,0,0,0,0,0,0,0,0,0,0,0.0354,0.0363,0.0361,0.037,0.0371,0.0341,0.034,0.034,0.0365,0.0367,0.0368,0.0369,0.0406,0.0407,0.0407,0.0381,0,0,0.0408,0.0408,0,0,0,0,0,0,0,0,0.0355,0.0354,0.0369,0.037,0.037,0.0357,0.0355,0.0356,0.0365,0.0368,0.0368,0.037,0.0394,0.0395,0.0388,0.0382,0.0384,0.0408,0.0408,0.0408,0.0408,0,0,0,0,0,0,0,0.0355,0.0355,0.0353,0.0369,0.0369,0.0355,0.0356,0.0355,0.0375,0.0367,0.0369,0.0366,0.0395,0.0388,0.0389,0.0385,0.0408,0.0408,0.0408,0.0408,0.0321,0.0319,0,0,0,0,0,0,0.0359,0.0356,0.0354,0.0352,0.0366,0.0355,0.0356,0.036,0.0373,0.0376,0.0365,0.0367,0.0387,0.0389,0.0391,0.0341,0.0408,0.0408,0.0408,0.0324,0.0321,0.0318,0,0,0,0,0,0,0.0359,0.0359,0.0354,0.0353,0.0351,0.0354,0.0358,0.0359,0.0362,0.0371,0.0375,0.0368,0.0388,0.039,0.0391,0.0344,0.0408,0.0408,0.0327,0.0323,0.032,0.0254,0,0,0,0,0,0,0.0359,0.036,0.0365,0.0353,0.0352,0.0334,0.0356,0.0357,0.0357,0.036,0.0375,0.0379,0.0389,0.039,0.0391,0.0345,0.0409,0.033,0.0325,0.0321,0.0259,0.0248,0.0239,0,0,0,0,0,0.036,0.0358,0.0366,0.0365,0.0359,0.0333,0.033,0.0336,0.0356,0.0347,0.0361,0.0379,0.036,0.039,0.0391,0.0344,0.0332,0.0326,0.0321,0.0263,0.025,0.0239,0,0,0,0,0,0,0.0359,0.036,0.0368,0.0368,0.0351,0.0337,0.0333,0.0336,0.0338,0.035,0.0367,0.037,0.0342,0.0353,0.0385,0.03,0.0341,0.0336,0.0296,0.0284,0.0275,0.0279,0.0409,0,0,0,0,0,0.0362,0.0365,0.0354,0.0352,0.0348,0.0342,0.0335,0.0336,0.0334,0.0337,0.0353,0.0349,0.0314,0.0314,0.0299,0.0271,0.0305,0.0233,0.0223,0.0215,0.0216,0.0217,0.0208,0.03,0.03,0.03,0,0,0.036,0.0361,0.0363,0.0352,0.0346,0.032,0.0342,0.0329,0.03,0.034,0.0328,0.0323,0.0299,0.0256,0.0243,0.0267,0.0208,0.0208,0.0201,0.0207,0.021,0.0202,0.0194,0.0296,0.0297,0.0298,0,0,0.0346,0.0361,0.0354,0.034,0.0327,0.0312,0.0309,0.0303,0.0296,0.0279,0.0278,0.025,0.0239,0.0195,0.0169,0.0095,0.0153,0.0087,0.0047,0.0047,0.004,0.0035,0.0086,0.0086,0.0085,0.0085,0.0085,0,0.0345,0.0338,0.0343,0.0325,0.0308,0.0307,0.0278,0.0256,0.0251,0.0229,0.0271,0.0204,0.0196,0.0097,0.0073,0.0071,0.0114,0.0098,0.0037,0.0032,0.0028,0.0082,0.0082,0.0081,0.0081,0.0082,0.0082,0,0.0319,0.0314,0.0306,0.0283,0.0256,0.0238,0.0204,0.0184,0.0187,0.0165,0.0106,0.0099,0.0064,0.0032,0.0037,-0.0031,0.0025,0.0026,0.0076,0.0015,0.0075,0.0077,0.0076,0.0077,0.0078,0.0079,0,0,0.032,0.0295,0.0295,0.0276,0.0239,0.0211,0.015,0.0087,0.0041,0.004,-0.0014,-0.0078,-0.0054,-0.0082,-0.0091,-0.0099,-0.0089,-0.0039,-0.0037,0.0029,-0.0034,-0.0064,-0.0064,-0.0081,-0.0082,-0.0083,0.003,0,0.0301,0.0269,0.0251,0.02,0.0176,0.0141,0.0077,0.0016,-0.0019,-0.0065,-0.0102,-0.0137,-0.0111,-0.0112,-0.0125,-0.0108,-0.009,-0.0117,0.0001,0.0005,-0.0002,-0.0067,-0.0085,0.0032,0.0033,0.0033,0.0033,0,0.0283,0.0263,0.0238,0.0157,0.0142,0.013,0.0031,-0.0028,-0.0119,-0.0144,-0.0185,-0.02,-0.0233,-0.0181,-0.0157,-0.0161,-0.0091,-0.0065,-0.006,-0.0065,-0.0025,0.0098,0.0037,0.0037,0.0037,0.0036,0.0036,0,0.0286,0.0238,0.0227,0.0212,0.0136,0.0131,0.0091,-0.0011,-0.0091,-0.0148,-0.0201,-0.0237,-0.0237,-0.0185,-0.0118,-0.0121,-0.0061,-0.0063,-0.0024,-0.0021,0.001,0.0015,-0.0025,-0.0025,-0.0025,-0.0025,-0.0026,0,0.0264,0.0243,0.0266,0.0261,0.0237,0.0179,0.0125,0.0063,-0.0047,-0.0151,-0.0189,-0.026,-0.0233,-0.0214,-0.0127,-0.0065,-0.0053,-0.0037,-0.0015,-0.0018,-0.0019,0.0014,0.0017,-0.0021,-0.0022,-0.0023,-0.0024,0,0.026,0.027,0.0262,0.0248,0.0258,0.0262,0.0179,0.0087,0.0013,-0.0115,-0.013,-0.0254,-0.0239,-0.0202,-0.0123,-0.0087,-0.0014,0.0023,0.0053,0.0079,0.0038,0.0036,0.0049,0.0048,0.0048,0.0047,0.0047,0,0.025,0.0256,0.0299,0.0324,0.0354,0.0348,0.0293,0.0172,0.0049,-0.0117,-0.0205,-0.0239,-0.0293,-0.018,-0.0148,-0.0009,0.0006,0.0066,-0.0002,0.0014,0.0036,0.0035,0.0033,0.0046,0.0046,0.0046,0.0046,0,0.0216,0.027,0.0268,0.0364,0.0379,0.0288,0.022,0.0161,-0.0024,-0.012,-0.0229,-0.0233,-0.0246,-0.0195,-0.0089,0.0006,0.0019,0.0061,0.0061,-0.0002,0.0011,0.0033,0.0032,0.0044,0.0044,0.0044,0.0045,0,0.0207,0.0222,0.0287,0.035,0.0381,0.03,0.0229,0.0101,-0.0016,-0.0191,-0.0203,-0.0219,-0.0248,-0.0186,-0.0087,-0.0015,-0.0023,0.0012,0.0015,0.0017,-0.0056,-0.0047,-0.0022,0,0,0,0,0,0.0205,0.0209,0.0251,0.0286,0.0323,0.0334,0.0186,0.0075,-0.0051,-0.0119,-0.0163,-0.0162,-0.0115,-0.0123,-0.0051,-0.0117,-0.0014,-0.0037,0.003,0.0034,0.0036,-0.0052,0,0,0,0,0,0,0.018,0.0228,0.0235,0.0268,0.0314,0.025,0.0203,0.0059,0.0002,-0.0075,-0.0041,-0.0116,-0.006,-0.0103,-0.0022,-0.0023,0.0029,-0.0045,-0.0044,0.0033,0.0035,0.0037,-0.0054,0,0,0,0,0]}]]